Tracking 25710 objects as of 5-Jul-2022
HD Live streaming from Space Station
objects crossing your sky now

FENGYUN 1C DEB

Track FENGYUN 1C DEB now!
10-day predictions


NORAD ID: 35167
Int'l Code: 1999-025DMX
Perigee: 639.8 km
Apogee: 1,000.1 km
Inclination: 98.4 °
Period: 101.1 minutes
Semi major axis: 7190 km
RCS: 0.0088 m2 (small)
Launch date: May 10, 1999
Source: People's Republic of China (PRC)
Launch site: Taiyaun Space Center, China (TSC)

Note: This is SATELLITE DEBRIS
aabbcc
Your satellite tracking list
Your tracking list is empty




NASA's NSSDC Master Catalog

Two Line Element Set (TLE):
1 35167U 99025DMX 22182.00892289  .00000339  00000-0  12352-3 0  9991
2 35167  98.4472 202.5563 0250502 311.5734  46.4210 14.23711519520401
Source of the keplerian elements: AFSPC